This is the latest recevied weather packets stored in our database for station/object IW1CGW-13. If no packets are shown the sender has not sent any weather packets the latest 10 day(s).
| Time | Temp. | Humidity | Pressure | Rain* | Wind** | Luminosity | Snow |
|---|---|---|---|---|---|---|---|
| 1777881206 | 14.44° C | 66% | 1017.5 hPa | - | - | - | - |
| 1777880585 | 13.89° C | 67% | 1017.5 hPa | - | - | - | - |
| 1777879962 | 13.89° C | 67% | 1017.4 hPa | - | - | - | - |
| 1777879334 | 13.33° C | 67% | 1017.3 hPa | - | - | - | - |
| 1777878713 | 13.33° C | 67% | 1017.3 hPa | - | - | - | - |
| 1777878091 | 13.33° C | 67% | 1017.2 hPa | - | - | - | - |
| 1777877470 | 13.33° C | 67% | 1016.9 hPa | - | - | - | - |
| 1777876849 | 13.33° C | 66% | 1017 hPa | - | - | - | - |
| 1777876228 | 13.33° C | 66% | 1016.8 hPa | - | - | - | - |
| 1777874986 | 12.78° C | 67% | 1016.6 hPa | - | - | - | - |
| 1777874363 | 12.22° C | 67% | 1016.5 hPa | - | - | - | - |
| 1777873739 | 12.22° C | 67% | 1016.5 hPa | - | - | - | - |
| 1777873117 | 12.22° C | 66% | 1016.5 hPa | - | - | - | - |
| 1777872496 | 12.22° C | 66% | 1016.4 hPa | - | - | - | - |
| 1777871876 | 12.22° C | 66% | 1016.3 hPa | - | - | - | - |
| 1777871255 | 12.22° C | 66% | 1016.5 hPa | - | - | - | - |
| 1777870634 | 12.22° C | 66% | 1016.5 hPa | - | - | - | - |
| 1777870013 | 12.22° C | 66% | 1016.4 hPa | - | - | - | - |
| 1777869392 | 12.22° C | 66% | 1016.4 hPa | - | - | - | - |
| 1777868772 | 12.22° C | 66% | 1016.4 hPa | - | - | - | - |
| 1777868146 | 12.22° C | 66% | 1016.4 hPa | - | - | - | - |
| 1777867525 | 12.22° C | 66% | 1016.4 hPa | - | - | - | - |
| 1777866904 | 12.22° C | 66% | 1016.3 hPa | - | - | - | - |
| 1777866284 | 12.78° C | 66% | 1016.2 hPa | - | - | - | - |
| 1777865663 | 12.22° C | 66% | 1016.3 hPa | - | - | - | - |
* Rain since midnight (hover to see other rain measurements)
** Current wind speed in m/s (hover to see current wind gust speed)